Location: Conjunto Santa Maria
(19.9513°S, 43.9599°W)
Time: 06:47:10
(UTC+00:00)

Centaur D-1A AC-31 - Visible Passes

Search period start: 09 May 2021 00:00
Search period end: 19 May 2021 00:00
Orbit: 504 x 36435 km, 27.7° (Epoch: 07 May)

Date Brightness Start Highest point End Pass type
(mag) Time Alt. Az. Time Alt. Az. Time Alt. Az.
10 May 8.2 00:24:17 10° ENE 03:50:02 34° E 05:07:33 10° ESE visible
11 May 8.1 04:40:07 10° NW 06:31:29 28° NW 10:12:32 10° W visible
12 May 5.8 01:50:06 10° NNW 05:21:14 53° NNW 11:50:28 10° E visible
12 May 7.0 23:18:01 10° N 08:48:37 85° SSW 09:22:33 10° ESE visible
13 May 6.3 23:11:54 10° ENE 05:27:06 62° ENE 06:50:37 10° ESE visible
15 May 8.3 00:26:50 10° E 02:53:10 25° E 04:02:23 10° ESE visible
16 May 4.8 03:33:59 10° NW 05:45:40 36° NW 13:21:47 10° E visible
17 May 6.2 00:52:05 10° NNW 05:07:24 59° NNW 10:55:03 10° ESE visible
17 May 6.9 22:23:39 10° N 07:33:03 89° NE 08:26:21 10° ESE visible
